SWR57Z LEMD-LSZH

Flight info

Callsign SWR57Z
Flight time 1h 40m
Altitude 36000
Route PINAR2U PINAR N870 SEGRE DCT YAKXU DCT RONNY DCT TOPTU DCT TOU DCT GAI DCT MEN DCT NINUN DCT LATAM DCT ETREK DCT LTP DCT SOPLO DCT OMASI DCT KINNI DCT LAMUR DCT GUDAX Z57 DOPIL DOPIL2G
Aircraft A321/M-SDE3FGHIRWY/LB1

Departure

Time 2026-05-04 16:39
Airport Adolfo Suárez Madrid–Barajas Airport (LEMD)

Arrival

Time 2026-05-04 18:19
Airport Zürich Airport (LSZH)
Time Latitude Longitude Altitude Speed Heading
2026-05-04 15:46 40.47036 -3.56882 1981 ft 0 kts 232°
2026-05-04 16:26 40.47067 -3.56815 1980 ft 3 kts 275°
2026-05-04 16:26 40.47062 -3.56789 1980 ft 0 kts 316°
2026-05-04 16:29 40.47128 -3.56870 1984 ft 11 kts 317°
2026-05-04 16:30 40.47323 -3.56934 1981 ft 10 kts 332°
2026-05-04 16:31 40.47464 -3.57123 1983 ft 11 kts 303°
2026-05-04 16:31 40.47616 -3.57137 1980 ft 9 kts 19°
2026-05-04 16:32 40.47901 -3.57400 1980 ft 20 kts 322°
2026-05-04 16:33 40.48108 -3.57609 1982 ft 18 kts 322°
2026-05-04 16:33 40.48297 -3.57802 1981 ft 16 kts 322°
2026-05-04 16:34 40.48523 -3.58001 1982 ft 20 kts 327°
2026-05-04 16:34 40.48645 -3.58059 1982 ft 18 kts 357°
2026-05-04 16:35 40.48857 -3.57960 1980 ft 11 kts 89°
2026-05-04 16:35 40.48871 -3.57648 1983 ft 12 kts 55°
2026-05-04 16:36 40.48965 -3.57627 1981 ft 15 kts 359°
2026-05-04 16:36 40.49145 -3.57628 1980 ft 11 kts
2026-05-04 16:37 40.49222 -3.57497 1981 ft 8 kts 64°
2026-05-04 16:37 40.49258 -3.57461 1982 ft 6 kts
2026-05-04 16:37 40.49365 -3.57463 1982 ft 46 kts 359°
2026-05-04 16:38 40.50826 -3.57473 1981 ft 155 kts
2026-05-04 16:39 40.54609 -3.57449 3255 ft 188 kts 355°
2026-05-04 16:39 40.57431 -3.56696 3761 ft 228 kts 14°
2026-05-04 16:40 40.60596 -3.55444 4823 ft 240 kts 13°
2026-05-04 16:40 40.63826 -3.54270 6234 ft 241 kts
2026-05-04 16:41 40.67181 -3.53433 7184 ft 268 kts 30°
2026-05-04 16:41 40.71040 -3.47697 9347 ft 287 kts 49°
2026-05-04 16:42 40.74921 -3.41486 11448 ft 299 kts 49°
2026-05-04 16:43 40.77600 -3.37187 12786 ft 308 kts 49°
2026-05-04 16:43 40.80337 -3.32794 13857 ft 312 kts 49°
2026-05-04 16:43 40.81721 -3.30568 14496 ft 315 kts 49°
2026-05-04 16:44 40.86270 -3.20367 16389 ft 352 kts 75°
2026-05-04 16:45 40.87527 -3.13848 16929 ft 381 kts 75°
2026-05-04 16:46 40.89638 -3.03151 17735 ft 418 kts 74°
2026-05-04 16:46 40.91131 -2.95570 18276 ft 430 kts 74°
2026-05-04 16:47 40.92378 -2.89181 18681 ft 433 kts 74°
2026-05-04 16:47 40.93896 -2.81410 19460 ft 438 kts 72°
2026-05-04 16:48 40.99148 -2.71809 20761 ft 436 kts 40°
2026-05-04 16:48 41.01353 -2.69034 21214 ft 439 kts 40°
2026-05-04 16:49 41.05812 -2.63436 22103 ft 444 kts 41°
2026-05-04 16:49 41.10318 -2.57749 23015 ft 450 kts 41°
2026-05-04 16:50 41.14857 -2.51974 23814 ft 455 kts 41°
2026-05-04 16:50 41.19429 -2.46150 24470 ft 462 kts 41°
2026-05-04 16:51 41.21961 -2.42926 24818 ft 465 kts 41°
2026-05-04 16:51 41.24312 -2.39933 25139 ft 468 kts 41°
2026-05-04 16:51 41.29052 -2.33890 25772 ft 474 kts 41°
2026-05-04 16:52 41.33828 -2.27778 26396 ft 481 kts 42°
2026-05-04 16:52 41.36252 -2.24671 26667 ft 485 kts 42°
2026-05-04 16:53 41.37584 -2.22959 26833 ft 486 kts 42°
2026-05-04 16:53 41.43859 -2.14880 27567 ft 493 kts 42°
2026-05-04 16:54 41.46329 -2.11697 27842 ft 495 kts 42°
2026-05-04 16:55 41.56306 -1.98823 29021 ft 499 kts 42°
2026-05-04 16:55 41.61288 -1.92377 29711 ft 498 kts 42°
2026-05-04 16:56 41.66273 -1.85924 30245 ft 499 kts 43°
2026-05-04 16:56 41.73708 -1.76221 31023 ft 500 kts 43°
2026-05-04 16:57 41.76194 -1.72970 31282 ft 500 kts 43°
2026-05-04 16:57 41.81161 -1.66479 31910 ft 498 kts 43°
2026-05-04 16:58 41.88598 -1.56740 32717 ft 498 kts 43°
2026-05-04 16:58 41.91076 -1.53484 32928 ft 499 kts 43°
2026-05-04 16:59 41.96027 -1.46961 33441 ft 499 kts 44°
2026-05-04 17:00 42.05910 -1.33901 34425 ft 498 kts 44°
2026-05-04 17:00 42.13310 -1.24091 35016 ft 498 kts 44°
2026-05-04 17:01 42.18251 -1.17530 35427 ft 498 kts 44°
2026-05-04 17:01 42.23189 -1.10943 35758 ft 500 kts 45°
2026-05-04 17:02 42.28128 -1.04324 35954 ft 501 kts 45°
2026-05-04 17:03 42.35559 -0.94383 35948 ft 500 kts 45°
2026-05-04 17:03 42.42919 -0.84381 35951 ft 500 kts 50°
2026-05-04 17:04 42.51424 -0.69515 35928 ft 501 kts 53°
2026-05-04 17:05 42.59936 -0.54518 35959 ft 502 kts 54°
2026-05-04 17:06 42.66298 -0.43217 35985 ft 502 kts 53°
2026-05-04 17:07 42.71975 -0.33124 35980 ft 502 kts 54°
2026-05-04 17:07 42.76889 -0.24347 35985 ft 501 kts 54°
2026-05-04 17:08 42.83302 -0.13073 35999 ft 501 kts 52°
2026-05-04 17:09 42.84791 -0.10610 35997 ft 501 kts 51°
2026-05-04 17:09 42.87355 -0.06430 36004 ft 501 kts 51°
2026-05-04 17:10 42.98450 0.11882 36011 ft 500 kts 52°
2026-05-04 17:11 43.02819 0.19253 36034 ft 499 kts 52°
2026-05-04 17:12 43.09372 0.30291 36025 ft 497 kts 52°
2026-05-04 17:13 43.20196 0.48584 35998 ft 495 kts 52°
2026-05-04 17:14 43.28831 0.63286 35998 ft 494 kts 52°
2026-05-04 17:15 43.35293 0.74317 35993 ft 494 kts 52°
2026-05-04 17:16 43.43878 0.89084 35970 ft 494 kts 54°
2026-05-04 17:17 43.51737 1.04528 35971 ft 492 kts 58°
2026-05-04 17:18 43.59566 1.20062 35933 ft 493 kts 57°
2026-05-04 17:19 43.67479 1.35638 35923 ft 498 kts 58°
2026-05-04 17:20 43.75417 1.51434 35928 ft 501 kts 58°
2026-05-04 17:20 43.81343 1.63279 35922 ft 502 kts 57°
2026-05-04 17:21 43.89303 1.79244 35944 ft 501 kts 58°
2026-05-04 17:22 43.93231 1.87157 35938 ft 502 kts 58°
2026-05-04 17:23 44.01125 2.03147 35934 ft 503 kts 57°
2026-05-04 17:24 44.07057 2.15199 35943 ft 503 kts 57°
2026-05-04 17:25 44.14940 2.31302 35925 ft 503 kts 57°
2026-05-04 17:26 44.22816 2.47478 35941 ft 505 kts 57°
2026-05-04 17:27 44.32642 2.67792 35935 ft 506 kts 58°
2026-05-04 17:28 44.40505 2.84138 35957 ft 507 kts 58°
2026-05-04 17:29 44.52229 3.08712 35941 ft 507 kts 58°
2026-05-04 17:31 44.61373 3.28000 35968 ft 508 kts 58°
2026-05-04 17:32 44.71117 3.48715 35974 ft 508 kts 58°
2026-05-04 17:33 44.78866 3.65317 35974 ft 507 kts 58°
2026-05-04 17:34 44.86599 3.81945 35958 ft 507 kts 58°
2026-05-04 17:35 44.96209 4.02789 35995 ft 508 kts 58°
2026-05-04 17:36 45.00054 4.11161 36000 ft 508 kts 58°
2026-05-04 17:36 45.03889 4.19527 36007 ft 508 kts 58°
2026-05-04 17:37 45.07729 4.27934 35983 ft 508 kts 58°
2026-05-04 17:37 45.11552 4.36327 36001 ft 508 kts 58°
2026-05-04 17:38 45.15381 4.44759 36010 ft 508 kts 58°
2026-05-04 17:38 45.19184 4.53179 36022 ft 507 kts 58°
2026-05-04 17:39 45.24883 4.65814 36005 ft 507 kts 58°
2026-05-04 17:39 45.28677 4.74251 36032 ft 506 kts 58°
2026-05-04 17:40 45.32459 4.82672 36044 ft 506 kts 58°
2026-05-04 17:40 45.36230 4.91110 36038 ft 505 kts 59°
2026-05-04 17:41 45.39992 4.99562 36032 ft 505 kts 59°
2026-05-04 17:41 45.43741 5.08030 35999 ft 505 kts 59°
2026-05-04 17:42 45.47484 5.16494 36007 ft 505 kts 59°
2026-05-04 17:42 45.51217 5.24956 36011 ft 505 kts 59°
2026-05-04 17:43 45.54955 5.33451 36016 ft 505 kts 59°
2026-05-04 17:43 45.58669 5.41933 36022 ft 504 kts 59°
2026-05-04 17:44 45.62385 5.50436 36015 ft 504 kts 59°
2026-05-04 17:44 45.66080 5.58892 36033 ft 505 kts 59°
2026-05-04 17:45 45.69786 5.67423 36030 ft 504 kts 59°
2026-05-04 17:45 45.73841 5.75599 36044 ft 505 kts 47°
2026-05-04 17:46 45.79002 5.82434 36034 ft 504 kts 41°
2026-05-04 17:46 45.84224 5.89149 36038 ft 504 kts 41°
2026-05-04 17:47 45.89425 5.95874 36017 ft 504 kts 41°
2026-05-04 17:47 45.94634 6.02613 36017 ft 504 kts 41°
2026-05-04 17:48 45.99829 6.09357 36018 ft 504 kts 41°
2026-05-04 17:48 46.05017 6.16122 36042 ft 503 kts 41°
2026-05-04 17:49 46.09921 6.23298 36064 ft 502 kts 53°
2026-05-04 17:49 46.13962 6.31495 36062 ft 502 kts 55°
2026-05-04 17:50 46.17979 6.39741 36036 ft 502 kts 55°
2026-05-04 17:50 46.21978 6.47982 36051 ft 501 kts 55°
2026-05-04 17:51 46.25969 6.56216 36057 ft 500 kts 55°
2026-05-04 17:51 46.29953 6.64443 36057 ft 500 kts 55°
2026-05-04 17:52 46.33929 6.72697 36057 ft 499 kts 55°
2026-05-04 17:52 46.37887 6.80939 36050 ft 499 kts 55°
2026-05-04 17:53 46.41817 6.89144 36061 ft 498 kts 55°
2026-05-04 17:53 46.45762 6.97401 36062 ft 497 kts 55°
2026-05-04 17:54 46.49694 7.05654 36044 ft 497 kts 55°
2026-05-04 17:54 46.53610 7.13899 36041 ft 496 kts 56°
2026-05-04 17:55 46.57602 7.22078 36044 ft 496 kts 49°
2026-05-04 17:55 46.62606 7.28942 36042 ft 494 kts 39°
2026-05-04 17:56 46.67801 7.35481 36025 ft 493 kts 39°
2026-05-04 17:56 46.70382 7.38749 35453 ft 491 kts 40°
2026-05-04 17:56 46.72969 7.42030 34664 ft 492 kts 40°
2026-05-04 17:57 46.75548 7.45304 33798 ft 494 kts 40°
2026-05-04 17:57 46.78095 7.48660 33005 ft 492 kts 46°
2026-05-04 17:57 46.80324 7.52403 32327 ft 486 kts 52°
2026-05-04 17:57 46.82429 7.56260 31522 ft 486 kts 53°
2026-05-04 17:58 46.84538 7.60123 30697 ft 486 kts 53°
2026-05-04 17:58 46.86652 7.64001 29815 ft 487 kts 53°
2026-05-04 17:58 46.88757 7.67867 28807 ft 488 kts 53°
2026-05-04 17:58 46.90873 7.71759 27736 ft 490 kts 53°
2026-05-04 17:59 46.92997 7.75673 26700 ft 491 kts 53°
2026-05-04 17:59 46.95110 7.79569 25941 ft 487 kts 53°
2026-05-04 17:59 46.99287 7.87289 24316 ft 483 kts 53°
2026-05-04 18:00 47.01348 7.91119 23374 ft 485 kts 53°
2026-05-04 18:00 47.03427 7.94992 22515 ft 482 kts 53°
2026-05-04 18:00 47.05488 7.98842 21754 ft 478 kts 53°
2026-05-04 18:00 47.07631 8.02550 21013 ft 472 kts 45°
2026-05-04 18:01 47.09994 8.05880 20256 ft 467 kts 44°
2026-05-04 18:01 47.12336 8.09157 19555 ft 462 kts 44°
2026-05-04 18:01 47.14647 8.12387 18877 ft 456 kts 43°
2026-05-04 18:02 47.19496 8.18200 17369 ft 443 kts 25°
2026-05-04 18:02 47.22372 8.19567 16588 ft 434 kts
2026-05-04 18:02 47.25356 8.20097 15767 ft 429 kts
2026-05-04 18:02 47.28306 8.20545 14959 ft 425 kts
2026-05-04 18:03 47.31229 8.20984 14200 ft 420 kts
2026-05-04 18:03 47.34129 8.21400 13427 ft 416 kts
2026-05-04 18:03 47.36989 8.21798 12655 ft 411 kts
2026-05-04 18:03 47.39820 8.22177 11891 ft 404 kts
2026-05-04 18:04 47.42576 8.22532 11082 ft 392 kts
2026-05-04 18:04 47.45281 8.22864 10404 ft 388 kts
2026-05-04 18:04 47.50396 8.23468 10142 ft 349 kts
2026-05-04 18:05 47.52710 8.23734 9929 ft 319 kts
2026-05-04 18:05 47.54828 8.24249 9330 ft 304 kts 22°
2026-05-04 18:05 47.56571 8.25895 8759 ft 295 kts 48°
2026-05-04 18:05 47.57733 8.28334 8134 ft 289 kts 62°
2026-05-04 18:06 47.59640 8.33506 6777 ft 282 kts 63°
2026-05-04 18:06 47.60617 8.36003 5968 ft 278 kts 51°
2026-05-04 18:06 47.61886 8.38151 5106 ft 276 kts 55°
2026-05-04 18:07 47.62585 8.40711 4487 ft 274 kts 83°
2026-05-04 18:07 47.62374 8.43482 4079 ft 272 kts 112°
2026-05-04 18:07 47.61288 8.45704 4015 ft 271 kts 143°
2026-05-04 18:07 47.59602 8.46908 4012 ft 270 kts 172°
2026-05-04 18:08 47.57761 8.46815 3878 ft 262 kts 199°
2026-05-04 18:08 47.56123 8.45817 3717 ft 249 kts 208°
2026-05-04 18:08 47.54581 8.44778 3281 ft 241 kts 199°
2026-05-04 18:08 47.52927 8.44661 2814 ft 238 kts 170°
2026-05-04 18:09 47.49357 8.46247 3452 ft 286 kts 163°
2026-05-04 18:09 47.45597 8.47899 3970 ft 273 kts 177°
2026-05-04 18:10 47.43738 8.47631 4009 ft 267 kts 195°
2026-05-04 18:10 47.41945 8.46951 4010 ft 265 kts 198°
2026-05-04 18:10 47.40173 8.46246 4005 ft 264 kts 198°
2026-05-04 18:10 47.38425 8.45474 4232 ft 267 kts 206°
2026-05-04 18:11 47.36979 8.43836 5178 ft 264 kts 233°
2026-05-04 18:11 47.36178 8.41342 5790 ft 271 kts 257°
2026-05-04 18:11 47.36212 8.38597 5979 ft 276 kts 284°
2026-05-04 18:11 47.36729 8.36847 6015 ft 279 kts 302°
2026-05-04 18:12 47.38602 8.34248 6032 ft 282 kts 322°
2026-05-04 18:12 47.40192 8.32568 6052 ft 280 kts 323°
2026-05-04 18:12 47.41789 8.30929 6041 ft 278 kts 323°
2026-05-04 18:12 47.43378 8.29312 6039 ft 278 kts 323°
2026-05-04 18:13 47.44974 8.27687 6043 ft 278 kts 324°
2026-05-04 18:13 47.46026 8.26611 6026 ft 277 kts 323°
2026-05-04 18:13 47.49412 8.23961 5998 ft 281 kts 351°
2026-05-04 18:14 47.51331 8.24128 5741 ft 275 kts 11°
2026-05-04 18:14 47.53168 8.24767 5485 ft 267 kts 13°
2026-05-04 18:14 47.54881 8.25723 5229 ft 261 kts 33°
2026-05-04 18:15 47.56920 8.29920 4753 ft 246 kts 63°
2026-05-04 18:15 47.58083 8.34416 4232 ft 228 kts 92°
2026-05-04 18:15 47.57871 8.36699 4059 ft 216 kts 102°
2026-05-04 18:16 47.57568 8.38782 4033 ft 196 kts 103°
2026-05-04 18:16 47.57244 8.40652 3930 ft 184 kts 111°
2026-05-04 18:16 47.56537 8.42201 3679 ft 180 kts 138°
2026-05-04 18:17 47.54728 8.44679 3203 ft 174 kts 138°
2026-05-04 18:17 47.53870 8.45856 2978 ft 163 kts 139°
2026-05-04 18:17 47.52279 8.48038 2533 ft 148 kts 139°
2026-05-04 18:18 47.51529 8.49070 2330 ft 147 kts 139°
2026-05-04 18:18 47.50766 8.50113 2120 ft 153 kts 140°
2026-05-04 18:18 47.49995 8.51164 1973 ft 149 kts 141°
2026-05-04 18:18 47.49248 8.52192 1762 ft 145 kts 140°
2026-05-04 18:19 47.47800 8.54180 1402 ft 135 kts 139°
2026-05-04 18:19 47.47230 8.54947 1383 ft 85 kts 138°
2026-05-04 18:19 47.46918 8.55369 1391 ft 40 kts 137°
2026-05-04 18:20 47.46746 8.55586 1399 ft 27 kts 146°
2026-05-04 18:20 47.46592 8.55680 1398 ft 17 kts 166°
2026-05-04 18:20 47.46507 8.55709 1395 ft 12 kts 167°
2026-05-04 18:20 47.46433 8.55733 1397 ft 10 kts 168°
2026-05-04 18:21 47.46379 8.55766 1407 ft 7 kts 146°
2026-05-04 18:21 47.46339 8.55817 1406 ft 11 kts 137°
2026-05-04 18:21 47.46278 8.55900 1409 ft 11 kts 137°
2026-05-04 18:21 47.46229 8.55966 1411 ft 8 kts 137°
2026-05-04 18:22 47.46192 8.55997 1410 ft 6 kts 164°
2026-05-04 18:22 47.46138 8.55998 1407 ft 9 kts 186°
2026-05-04 18:22 47.46072 8.55986 1407 ft 10 kts 186°
2026-05-04 18:22 47.46000 8.55974 1406 ft 11 kts 187°
2026-05-04 18:23 47.45929 8.55949 1407 ft 10 kts 198°
2026-05-04 18:23 47.45872 8.55920 1414 ft 7 kts 201°
2026-05-04 18:23 47.45853 8.55909 1411 ft 0 kts 201°
2026-05-04 18:24 47.45821 8.55891 1411 ft 11 kts 201°
2026-05-04 18:25 47.45725 8.55869 1411 ft 13 kts 185°
2026-05-04 18:25 47.45649 8.55858 1410 ft 11 kts 186°
2026-05-04 18:25 47.45577 8.55845 1410 ft 10 kts 186°
2026-05-04 18:25 47.45507 8.55820 1413 ft 8 kts 198°
2026-05-04 18:26 47.45460 8.55809 1407 ft 7 kts 186°
2026-05-04 18:26 47.45428 8.55804 1407 ft 1 kts 185°
2026-05-04 18:26 47.45427 8.55804 1407 ft 0 kts 186°